Regional Weather Roundup
Issued by NWS

Home | Current Version | Previous Version | Graphics & Text | Print | Product List | Glossary On
Versions: 1 2 3 4 5 6 7 8 9 10 11 12 13 14 15 16 17 18 19 20 21 22 23 24 25 26 27 28 29 30 31 32 33 34 35 36 37 38 39 40 41 42 43 44 45 46 47 48 49 50
000
ASUS45 KABQ 202010
RWRNM
WEATHER ROUNDUP FOR NEW MEXICO
NATIONAL WEATHER SERVICE ALBUQUERQUE NM
200 PM MDT SAT SEP 20 2014

NOTE: "FAIR" MEANS FEW OR NO CLOUDS BELOW 12,000 FEET AGL WITH NO
       SIGNIFICANT WEATHER OR OBSTRUCTIONS TO VISION.

      THIS PRODUCT IS RELEASED AS TWO VERSIONS.  ONE VERSION NEAR
      THE TOP OF THE HOUR CONTAINING PRELIMINARY DATA FROM ALBUQUERQUE
      AND OTHER STATIONS.  A FINAL VERSION WITH ADDITIONAL DATA IS
      ISSUED ABOUT 10 MINUTES AFTER THE HOUR.

NMZ501-503-504-510>518-202100-
NORTHWEST PLATEAU/NORTHCENTRAL MOUNTAINS

CITY           SKY/WX    TMP DP  RH WIND       PRES   REMARKS
FARMINGTON     SUNNY     87  46  24 CALM      30.12F
LOS ALAMOS     SUNNY     81  39  21 NE5       30.26F
SANTA FE       SUNNY     85  41  21 MISG      30.18F
TAOS           PTSUNNY   84  36  17 SE16      30.25F
ANGEL FIRE     FAIR      76  31  19 E15G25    30.40S

$$
NMZ402-403-502-505>509-202100-
WESTCENTRAL MOUNTAINS/SOUTHWEST MOUNTAINS

CITY           SKY/WX    TMP DP  RH WIND       PRES   REMARKS
GALLUP         PTSUNNY   85  38  18 N10       30.19F
GRANTS         SUNNY     84  43  23 S9        30.22F
SILVER CITY    MOSUNNY   79  61  53 S8        30.16F

$$
NMZ407-409-411-412-202100-
SOUTHERN DESERTS

CITY           SKY/WX    TMP DP  RH WIND       PRES   REMARKS
LORDSBURG      FAIR      82  63  51 MISG      30.07F
DEMING         PTSUNNY   83  62  49 VRB5      30.06F
LAS CRUCES     PTSUNNY   83  60  45 CALM      30.08F
HOLLOMAN AFB   MOSUNNY   82  63  52 VRB3      30.04F
ALAMOGORDO     MOSUNNY   82  64  54 W5        30.06F
T OR C         SUNNY     84  60  44 NE7       30.09F

$$
NMZ519>523-202100-
CENTRAL VALLEYS/CENTRAL HIGHLANDS

CITY           SKY/WX    TMP DP  RH WIND       PRES   REMARKS
ALBUQUERQUE    MOSUNNY   83  54  36 S5        30.13F
DOUBLE EAGLE   MOSUNNY   84  50  30 VRB3      30.17F
MORIARTY ARPT  FAIR      85  40  19 E20G26    30.22S
CLINES CORNERS SUNNY     79  46  31 E20G31    30.26F
BELEN          FAIR      83  56  40 SW7       30.13F
SOCORRO        FAIR      83  59  44 NW3       30.11F

$$
NMZ524>526-539-540-202100-
SOUTHCENTRAL MOUNTAINS

CITY           SKY/WX    TMP DP  RH WIND       PRES   REMARKS
RUIDOSO        PTSUNNY   73  57  56 SE12      30.27F

$$
NMZ527>531-202100-
NORTHEAST HIGHLANDS/NORTHEAST PLAINS

CITY           SKY/WX    TMP DP  RH WIND       PRES   REMARKS
LAS VEGAS      SUNNY     81  43  26 NE17G26   30.27F
RATON          SUNNY     82  43  25 E9        30.24S
CLAYTON        MOSUNNY   84  54  35 NE15G26   30.15F

$$
NMZ532>537-202100-
EASTCENTRAL PLAINS

CITY           SKY/WX    TMP DP  RH WIND       PRES   REMARKS
TUCUMCARI      SUNNY     85  60  42 VRB3      30.09F
CANNON AFB     CLOUDY    75  60  58 E6        30.13F
CLOVIS AIRPORT   N/A     75  64  69 E10       30.14F

$$
NMZ028-029-538-202100-
SOUTHEAST PLAINS

CITY           SKY/WX    TMP DP  RH WIND       PRES   REMARKS
ROSWELL        MOSUNNY   82  65  56 NW3       30.06F
CARLSBAD       MOSUNNY   80  73  79 NW6       30.03F
HOBBS          PTSUNNY   81  66  61 N8        30.06F


$$



USA.gov is the U.S. government's official web portal to all federal, state and local government web resources and services.